This demonstration page uses our WeatherBlox Daily Observations layout. Learn more.

38.88101, -77.10428

Hourly Observations for June 28, 2015

Temp ( °F °C ) Dew Point ( °F °C ) Humidity (%) Winds ( mph kmh ) Pressure ( in mb ) Visibility ( mi km ) Precip ( " mm )
12:52 am 00:52 Cloudy 71 21.7 67 19.4 87 87 NNE 5 7 29.68 1005 7 11.26538 0 0
1:52 am 01:52 Cloudy with Mist and Fog 71 21.7 67 19.4 87 87 NNE 7 11 29.66 1005 6 9.65604 0 0
2:22 am 02:22 Cloudy with Light Rain 70 21 64 18 83 83 NW 14 22 29.68 1005 10 16.0934 0 0
2:37 am 02:37 Cloudy with Light Rain 70 21 64 18 83 83 NNW 10 17 29.68 1005 10 16.0934 0 0.0254
2:52 am 02:52 Cloudy with Light Rain 69 20.6 64 17.8 84 84 NNW 10 17 29.68 1005 10 16.0934 0 0.0254
3:23 am 03:23 Cloudy 70 21 64 18 83 83 NNW 5 7 29.68 1005 10 16.0934 0 0
3:52 am 03:52 Partly Cloudy 68 20 63 17.2 84 84 NNW 5 7 29.67 1005 10 16.0934 0 0
4:52 am 04:52 Partly Cloudy 68 20 63 17.2 84 84 NW 3 6 29.67 1005 10 16.0934 0 0
5:52 am 05:52 Mostly Cloudy 68 20 62 16.7 81 81 NNW 7 11 29.7 1006 10 16.0934 0 0
6:52 am 06:52 Mostly Cloudy 68 20 62 16.7 81 81 W 3 6 29.72 1007 10 16.0934 0 0
7:52 am 07:52 Cloudy 70 21.1 62 16.7 76 76 N 5 7 29.73 1007 10 16.0934 0 0
8:52 am 08:52 Cloudy 71 21.7 63 17.2 76 76 SSW 7 11 29.75 1008 10 16.0934 0 0
9:52 am 09:52 Mostly Cloudy 73 22.8 65 18.3 76 76 SW 7 11 29.75 1008 10 16.0934 0 0
10:52 am 10:52 Mostly Cloudy 75 23.9 64 17.8 69 69 SSW 10 17 29.75 1007 10 16.0934 0 0
11:52 am 11:52 Mostly Cloudy 77 25 57 13.9 50 50 WSW 15 24 29.75 1007 10 16.0934 0 0
12:52 pm 12:52 Mostly Cloudy 79 26.1 57 13.9 47 47 WSW 10 17 29.75 1007 10 16.0934 0 0
1:52 pm 13:52 Cloudy 81 27.2 59 15 47 47 W 13 20 29.75 1007 10 16.0934 0 0
2:52 pm 14:52 Mostly Cloudy 79 26.1 58 14.4 49 49 W 12 19 29.76 1008 10 16.0934 0 0
3:52 pm 15:52 Cloudy 80 26.7 58 14.4 47 47 W 15 24 29.77 1008 10 16.0934 0 0
4:52 pm 16:52 Mostly Cloudy 79 26.1 57 13.9 47 47 WNW 14 22 29.77 1008 10 16.0934 0 0
5:52 pm 17:52 Mostly Cloudy 78 25.6 58 14.4 50 50 WNW 8 13 29.79 1009 10 16.0934 0 0
6:52 pm 18:52 Mostly Cloudy 79 26.1 57 13.9 47 47 W 12 19 29.82 1010 10 16.0934 0 0
7:52 pm 19:52 Partly Cloudy 77 25 56 13.3 48 48 WNW 9 15 29.84 1011 10 16.0934 0 0
9:52 pm 21:52 Mostly Clear 73 22.8 55 12.8 53 53 SW 5 7 29.89 1012 10 16.0934 0 0
10:52 pm 22:52 Partly Cloudy 73 22.8 56 13.3 55 55 W 9 15 29.9 1012 10 16.0934 0 0
11:52 pm 23:52 Mostly Clear 69 20.6 56 13.3 63 63 SW 6 9 29.88 1012 10 16.0934 0 0

Powered by AerisWeather